Regional Weather Roundup
Issued by NWS Charleston, WV

Home | Current Version | Previous Version | Graphics & Text | Print | Product List | Glossary On
Versions: 1 2 3 4 5 6 7 8 9 10 11 12 13 14 15 16 17 18 19 20 21 22 23 24 25 26 27
000
ASUS41 KRLX 211910
RWRRLX
West Virginia Regional Weather Roundup
National Weather Service Charleston WV
300 PM EDT MON AUG 21 2017

Note: "fair" indicates few or no clouds below 12,000 feet with no
significant weather and/or obstructions to visibility.

WVZ003-212000-
Northern Panhandle of West Virginia

CITY           SKY/WX    TMP DP  RH WIND       PRES   REMARKS
WHEELING       MOSUNNY   80  70  71 S8        30.15F
$$

WVZ009-212000-
Northwest West Virginia

CITY           SKY/WX    TMP DP  RH WIND       PRES   REMARKS
PARKERSBURG    MOSUNNY   83  71  67 S5        30.18F
$$

WVZ006-212000-
Western West Virginia

CITY           SKY/WX    TMP DP  RH WIND       PRES   REMARKS
HUNTINGTON     SUNNY     84  67  56 SE5       30.16F
$$

WVZ015-212000-
West Central West Virginia

CITY           SKY/WX    TMP DP  RH WIND       PRES   REMARKS
CHARLESTON     MOSUNNY   85  66  53 S6        30.18F
$$

WVZ022-031-212000-
North Central West Virginia

CITY           SKY/WX    TMP DP  RH WIND       PRES   REMARKS
CLARKSBURG     CLOUDY    83  67  58 CALM      30.19F
MORGANTOWN     CLOUDY    82  68  62 S5        30.19F
$$

WVZ025-035-042-045-212000-
Southern West Virginia

CITY           SKY/WX    TMP DP  RH WIND       PRES   REMARKS
BECKLEY        PTSUNNY   80  63  55 NE3       30.28F
LOGAN            N/A     82  70  65 CALM      30.22F
BLUEFIELD      SUNNY     77  61  57 CALM      30.30F
LEWISBURG      SUNNY     80  64  59 W3        30.27F
$$

WVZ047-212000-
Northern Mountains of West Virginia

CITY           SKY/WX    TMP DP  RH WIND       PRES   REMARKS
ELKINS         SUNNY     79  65  62 CALM      30.24F
$$

WVZ052-212000-
Eastern Panhandle of West Virginia

CITY           SKY/WX    TMP DP  RH WIND       PRES   REMARKS
MARTINSBURG    SUNNY     84  72  67 SE6       30.13F
PETERSBURG     MOSUNNY   85  71  64 W6        30.16F
$$




USA.gov is the U.S. government's official web portal to all federal, state and local government web resources and services.